EW5186 Weather Reports


time (UTC)temp
C
wind
direction
speed
KPH
gust
KPH
rain 1hr
cm
rain 24hr
cm
rain mn
cm
humidity
%
barometer
mb
20260831210043 23 210 0.0 9.7 0.00 0.03 0.03 76 1020.3
20260831204543 23 131 0.0 4.8 0.00 0.03 0.03 75 1020.3
20260831203041 24 92 0.0 4.8 0.00 0.03 0.03 72 1020.3
20260831201542 25 193 0.0 4.8 0.00 0.03 0.03 68 1020.4
20260831200040 25 193 0.0 6.4 0.00 0.03 0.03 67 1020.6
20260831194558 25 135 0.0 9.7 0.00 0.03 0.03 67 1020.7
20260831193040 25 352 0.0 9.7 0.00 0.03 0.03 66 1020.8
20260831191539 24 150 0.0 4.8 0.00 0.03 0.03 67 1021.0
20260831190044 24 108 0.0 9.7 0.00 0.03 0.03 68 1021.1
20260831184521 25 154 1.6 6.4 0.00 0.03 0.03 66 1021.0
20260831183020 25 134 0.0 9.7 0.00 0.03 0.03 64 1021.1
20260831181502 25 67 1.6 12.9 0.00 0.03 0.03 65 1021.1
20260831180001 25 133 0.0 8.0 0.00 0.03 0.03 67 1021.2
20260831174543 26 56 1.6 8.0 0.00 0.03 0.03 66 1021.2
20260831173045 26 125 0.0 6.4 0.00 0.03 0.03 63 1021.3
20260831171527 26 286 0.0 9.7 0.00 0.03 0.03 60 1021.3
20260831170023 27 122 0.0 4.8 0.00 0.03 0.03 63 1021.3
20260831164503 26 290 0.0 6.4 0.00 0.03 0.03 64 1021.6
20260831163003 25 331 0.0 6.4 0.00 0.03 0.03 66 1021.5
20260831161650 25 84 3.2 6.4 0.00 0.03 0.03 64 1021.7
20260831160048 25 79 0.0 9.7 0.00 0.03 0.03 64 1021.8
20260831154546 25 95 1.6 11.3 0.00 0.03 0.03 63 1021.9
20260831153045 25 76 1.6 8.0 0.00 0.03 0.03 62 1021.8
20260831151543 25 339 3.2 9.7 0.00 0.03 0.03 65 1021.8
20260831150043 25 55 0.0 4.8 0.00 0.03 0.03 70 1021.9
20260831144539 24 73 0.0 8.0 0.00 0.03 0.03 72 1022.0
20260831143049 23 75 0.0 8.0 0.00 0.03 0.03 69 1022.1
20260831141518 23 285 0.0 4.8 0.00 0.03 0.03 72 1021.9
20260831140017 23 82 0.0 1.6 0.00 0.03 0.03 72 1021.9
20260831134556 23 108 0.0 4.8 0.00 0.03 0.03 79 1021.7
20260831133052 22 263 0.0 4.8 0.00 0.03 0.03 77 1021.6
20260831131545 22 256 1.6 4.8 0.00 0.03 0.03 80 1021.9
20260831130031 22 298 0.0 4.8 0.00 0.03 0.03 83 1021.7
20260831124521 21 299 0.0 3.2 0.00 0.03 0.03 85 1021.8
20260831123015 20 294 0.0 3.2 0.00 0.03 0.03 87 1021.6
20260831121515 20 146 0.0 1.6 0.00 0.03 0.03 89 1021.6
20260831120012 18 274 0.0 1.6 0.03 0.03 0.03 95 1021.6
20260831114511 17 253 0.0 0.0 0.03 0.03 0.03 96 1021.4
20260831113009 17 152 0.0 0.0 0.03 0.03 0.03 96 1021.3
20260831111504 17 152 0.0 0.0 0.03 0.03 0.03 96 1021.0
20260831110002 16 152 0.0 0.0 0.00 0.00 0.00 96 1020.7
20260831104545 16 152 0.0 0.0 0.00 0.00 0.00 96 1020.7
20260831103044 16 152 0.0 0.0 0.00 0.00 0.00 96 1020.7
20260831101527 16 152 0.0 0.0 0.00 0.00 0.00 96 1020.7
20260831100025 16 152 0.0 0.0 0.00 0.00 0.00 96 1020.8
20260831094509 16 152 0.0 0.0 0.00 0.00 0.00 96 1020.7
20260831093005 16 152 0.0 0.0 0.00 0.00 0.00 95 1020.7
20260831091557 16 152 0.0 0.0 0.00 0.00 0.00 96 1020.4
20260831090047 15 152 0.0 0.0 0.00 0.00 0.00 95 1020.4
20260831084531 15 152 0.0 0.0 0.00 0.00 0.00 95 1020.4
20260831083037 16 152 0.0 0.0 0.00 0.00 0.00 94 1020.5
20260831081509 16 152 0.0 0.0 0.00 0.00 0.00 94 1020.5
20260831080006 16 152 0.0 0.0 0.00 0.00 0.00 94 1020.4
20260831074548 16 152 0.0 0.0 0.00 0.00 0.00 93 1020.5
20260831073045 16 152 0.0 0.0 0.00 0.00 0.00 93 1020.5
20260831071524 17 152 0.0 0.0 0.00 0.00 0.00 93 1020.1
20260831070026 17 152 0.0 0.0 0.00 0.00 0.00 92 1020.3
20260831064504 17 152 0.0 0.0 0.00 0.00 0.00 90 1020.1
20260831063101 18 170 0.0 1.6 0.00 0.00 0.00 89 1019.9
20260831061542 18 262 0.0 6.4 0.00 0.00 0.00 89 1019.9
20260831060042 18 281 0.0 3.2 0.00 0.00 0.00 91 1019.6
20260831054522 18 272 0.0 1.6 0.00 0.00 0.00 90 1019.6
20260831053020 19 272 0.0 1.6 0.00 0.00 0.00 90 1019.6
20260831051600 19 177 0.0 0.0 0.00 0.00 0.00 91 1019.6
20260831050057 20 232 0.0 1.6 0.00 0.00 0.00 90 1019.6
20260831044538 20 236 0.0 9.7 0.00 0.00 0.00 91 1019.7
20260831043034 21 75 0.0 0.0 0.00 0.00 0.00 93 1019.6
20260831041555 21 75 0.0 0.0 0.00 0.00 0.00 93 1019.6
20260831040021 21 74 0.0 0.0 0.00 0.00 0.00 92 1019.6
20260831034520 21 74 0.0 0.0 0.00 0.00 0.00 92 1019.5
20260831033023 21 74 0.0 1.6 0.00 0.00 0.00 91 1019.6
20260831031519 21 290 0.0 3.2 0.00 0.00 0.00 91 1019.7
20260831030018 21 328 0.0 6.4 0.00 0.00 0.00 89 1019.7
20260831024517 22 249 1.6 9.7 0.00 0.00 0.00 88 1019.7
20260831023018 22 266 1.6 6.4 0.00 0.00 0.00 88 1019.7
20260831021509 22 273 1.6 8.0 0.00 0.00 0.00 89 1019.4
20260831020004 22 326 0.0 4.8 0.00 0.00 0.00 91 1019.5
20260831014506 22 149 0.0 3.2 0.00 0.00 0.00 91 1019.3
20260831013003 22 101 0.0 1.6 0.00 0.00 0.00 91 1019.2
20260831011505 22 53 0.0 1.6 0.00 0.00 0.00 90 1019.1
20260831010001 22 146 0.0 0.0 0.00 0.00 0.00 89 1019.3
20260831004600 22 150 0.0 0.0 0.00 0.00 0.00 88 1019.3
20260831003058 22 150 0.0 0.0 0.00 0.00 0.00 87 1019.2
20260831001542 22 150 0.0 0.0 0.00 0.00 0.00 86 1019.1
20260831000055 22 147 0.0 0.0 0.00 0.00 0.00 85 1019.0
20260830234529 22 60 0.0 3.2 0.00 0.00 0.00 84 1018.9
20260830233029 22 143 0.0 1.6 0.00 0.00 0.00 83 1018.9
20260830231528 22 92 0.0 3.2 0.00 0.00 0.00 83 1018.8
20260830230027 23 94 0.0 8.0 0.00 0.00 0.00 82 1018.9
20260830224527 23 294 0.0 3.2 0.00 0.00 0.00 82 1018.8
20260830223028 23 171 0.0 1.6 0.00 0.00 0.00 81 1018.9
20260830221525 23 140 0.0 4.8 0.00 0.00 0.00 79 1019.0
20260830220127 23 109 1.6 4.8 0.00 0.00 0.00 79 1018.9
20260830214515 23 201 0.0 6.4 0.00 0.00 0.00 78 1018.9
20260830213012 24 253 1.6 11.3 0.00 0.00 0.00 77 1018.9
20260830211511 24 175 0.0 9.7 0.00 0.00 0.00 76 1018.9